Location: Champrosay
(48.6613°N, 2.4277°E)
Time: 04:27:08
(UTC+00:00)

Daily predictions for brighter satellites

Satellite Brightness Start Highest point End
(mag) Time Altitude Azimuth Time Altitude Azimuth Time Altitude Azimuth
SL-16 R/B 3.8 01:09:58 36° NNE 01:09:58 36° NNE 01:13:46 10° N
Cosmos 2237 Rocket 4.4 01:10:41 20° N 01:10:41 20° N 01:12:59 10° NNE
ADEOS II 4.2 01:14:50 10° NNE 01:17:15 23° NE 01:17:15 23° NE
SL-16 R/B 3.9 01:48:08 26° N 01:48:08 26° N 01:51:11 10° NNE
CZ-2D R/B 3.6 01:47:25 10° NNE 01:50:21 34° NNE 01:50:21 34° NNE
Resurs 1-4 Rocket 3.5 01:59:01 10° N 02:01:48 32° N 02:01:48 32° N
Cosmos 1943 4.0 02:23:44 43° N 02:23:44 43° N 02:27:51 10° NNE
Cosmos 1603 4.4 02:26:52 48° N 02:26:52 48° N 02:31:11 10° NNE
IDEFIX/ARIANE 42P 3.3 02:32:03 10° N 02:35:50 45° NNW 02:35:50 45° NNW
SL-08 R/B 4.3 02:39:14 85° NNW 02:39:14 85° NNW 02:45:17 10° N
ATLAS 5 CENTAUR R/B 3.5 02:40:34 21° N 02:40:34 21° N 02:43:00 10° NNE
Cosmos 2239 Rocket 4.4 02:41:02 70° SSE 02:41:40 78° E 02:47:51 10° NNE
Cosmos 2221 4.2 02:44:53 26° N 02:44:53 26° N 02:46:50 10° N
CZ-2C R/B 4.0 02:39:08 10° NNE 02:43:36 30° E 02:45:49 21° SE
Cosmos 2251 Rocket 4.1 02:38:33 10° NNW 02:43:45 55° ENE 02:48:53 10° SE
Cosmos 1000 Rocket 4.3 02:37:50 10° N 02:44:07 86° W 02:44:15 84° SW
Cosmos 1821 Rocket 3.8 02:45:36 79° WNW 02:45:36 79° WNW 02:51:53 10° N
MSX 3.9 02:44:37 10° N 02:49:57 65° NW 02:49:57 65° NW
SL-16 R/B 4.2 02:55:04 19° NW 02:55:04 19° NW 02:57:06 10° NNW
Cosmos 2123 Rocket 4.1 02:46:43 10° N 02:52:59 75° E 02:57:14 22° SSE
FENGYUN 3A 4.1 02:48:25 10° NNE 02:53:44 56° E 02:55:11 43° SSE
ADEOS II 3.0 02:54:22 10° N 02:58:10 37° NW 02:58:10 37° NW
Cosmos 1140 Rocket 4.1 02:56:01 10° NNW 03:01:07 54° ENE 03:06:13 10° SE
Sich 1 3.8 02:58:26 10° N 03:02:39 50° ENE 03:04:07 34° SE
Cosmos 1697 Rocket 4.1 02:57:35 10° NNW 03:02:52 38° NE 03:08:06 10° ESE
Cosmos 44 3.7 03:03:53 46° N 03:03:53 46° N 03:07:15 10° NNE
Cosmos 1782 4.1 03:11:05 33° N 03:11:05 33° N 03:13:26 10° N
IRS-1D 3.4 03:04:51 10° NNE 03:10:11 74° WNW 03:10:32 71° WSW
Cosmos 1934 Rocket 4.0 03:08:36 38° S 03:11:19 85° E 03:17:41 10° N
CBERS-1 4.1 03:06:53 10° NNE 03:12:01 73° ESE 03:13:28 47° S
Cosmos 1605 Rocket 4.5 03:08:56 14° SSE 03:14:08 57° E 03:20:06 10° NNE
ATLAS CENTAUR R/B 4.5 03:14:25 10° SE 03:16:24 12° ESE 03:18:23 10° E
CZ-2C R/B 3.4 03:18:42 10° SE 03:23:44 52° ENE 03:28:53 10° N
Cosmos 1932 4.5 03:25:13 47° WSW 03:27:00 68° NW 03:33:27 10° NE
Cosmos 1812 4.1 03:31:34 28° NNW 03:31:34 28° NNW 03:33:44 10° N
Cosmos 1340 4.4 03:32:42 21° NNW 03:32:42 21° NNW 03:34:21 10° N
SL-16 R/B 4.5 03:30:39 10° NW 03:32:00 11° NNW 03:33:21 10° N
PAYLOAD A 3.9 03:27:16 10° NNE 03:32:02 76° ESE 03:34:35 28° S
CZ-2D R/B 3.9 03:28:52 10° NNW 03:31:39 16° NW 03:31:39 16° NW
Cosmos 407 Rocket 3.5 03:28:23 10° NNW 03:33:42 87° ENE 03:39:03 10° SSE
Tiangong 0.6 03:38:03 12° SSE 03:38:03 12° SSE 03:38:28 10° SE
Atlas Centaur 2 4.5 03:36:13 15° SSW 03:38:23 17° S 03:42:47 10° SE
BREEZE-M DEB (TANK) 1.8 03:41:11 73° ESE 03:41:11 73° ESE 03:45:21 10° ESE
Cosmos 1980 Rocket 3.6 03:36:09 10° NNW 03:41:23 38° NE 03:46:34 10° ESE
Lacrosse 4 Rocket 4.5 03:40:20 10° N 03:41:49 11° NNE 03:43:17 10° NE
Meteor 1-14 Rocket 4.2 03:36:05 10° NNW 03:42:01 70° W 03:47:48 10° S
EO 1 Del DPAF 4.3 03:38:54 10° N 03:40:48 28° NNW 03:40:48 28° NNW
Cosmos 1656 3.6 03:36:28 10° NNW 03:42:08 64° WSW 03:47:44 10° SSE
ALOS 2.2 03:38:04 10° N 03:42:43 67° WNW 03:44:08 43° SW
X-37B 2.7 03:43:15 17° SE 03:43:15 17° SE 03:44:49 10° ESE
Resurs 1-4 Rocket 4.1 03:40:54 10° NNW 03:42:52 13° NW 03:42:52 13° NW
USA 307 4.4 03:51:03 19° S 03:53:09 29° SE 03:56:46 10° ENE
Helios 1B rocket 2.3 03:49:31 10° NNE 03:53:35 82° WNW 03:55:38 29° SSW
Cosmos 1805 Rocket 3.9 03:50:06 10° NNW 03:54:14 40° W 03:54:18 40° W
Meteor 1-5 Rocket 4.4 03:49:07 10° NNW 03:54:15 43° W 03:57:32 20° SSW
ARIANE 5 R/B 2.6 03:50:12 10° NNE 03:55:18 77° ESE 04:00:18 10° S
Meteor 1-11 Rocket 4.0 03:52:53 10° N 03:58:54 77° ENE 04:04:52 10° SSE
SL-08 R/B 3.3 03:57:31 10° SSE 04:02:09 81° ENE 04:06:54 10° NNW
Cosmos 1633 Rocket 3.0 03:59:22 10° N 04:03:45 87° ENE 04:08:05 10° S
USA 306 3.7 04:05:17 21° SSW 04:07:35 43° SE 04:11:31 10° ENE
Cosmos 1484 Rocket 2.9 04:04:02 10° NNE 04:08:01 77° E 04:12:00 10° S
Cosmos 676 Rocket 4.2 04:04:57 10° NNW 04:10:10 74° ENE 04:15:24 10° SSE
Cosmos 1666 Rocket 3.5 04:09:04 10° NNW 04:13:29 62° W 04:17:54 10° S
Cosmos 2098 Rocket 1.8 04:10:36 10° NNW 04:13:31 71° W 04:16:24 10° S
ERS-1 4.5 04:09:15 10° NNE 04:14:27 80° WNW 04:19:39 10° SSW
Cosmos 2360 4.1 04:09:17 10° NNW 04:14:59 72° WSW 04:20:38 10° SSE
Cosmos 1624 Rocket 4.2 04:11:56 10° SSW 04:17:12 77° ESE 04:22:33 10° NNE
Meteor 1-4 Rocket 2.6 04:14:30 10° N 04:18:07 80° ENE 04:21:45 10° SSE
Cosmos 1153 Rocket 4.4 04:12:01 10° SSW 04:18:09 80° W 04:24:24 10° N
CZ-2C R/B 3.9 04:13:19 10° NNE 04:19:06 60° E 04:24:40 10° S
Cosmos 2100 Rocket 4.2 04:15:11 10° S 04:21:17 72° E 04:27:25 10° NNE
Cosmos 1328 Rocket 3.5 04:17:30 10° S 04:21:52 85° WNW 04:26:17 10° N
USA 234 3.7 04:15:24 10° ENE 04:21:52 59° SE 04:28:18 10° SW
CZ-2C R/B 2.9 04:17:10 10° N 04:21:53 40° WNW 04:25:10 18° SW
BREEZE-M DEB (TANK) 3.1 04:20:00 19° W 04:23:32 52° SSW 04:26:05 10° ESE
Cosmos 1833 Rocket 2.6 04:19:47 10° SSW 04:25:25 80° WNW 04:31:07 10° NNE
ATLAS 5 CENTAUR R/B 3.9 04:23:21 10° NNW 04:25:36 14° N 04:28:02 10° NNE
Cosmos 2251 Rocket 4.5 04:21:31 10° NW 04:25:39 24° W 04:29:45 10° SSW
USA 308 3.5 04:24:31 15° SW 04:27:44 50° SE 04:31:46 10° ENE
CZ-2C R/B 1.5 04:25:41 10° N 04:27:47 85° E 04:31:11 10° S
Cosmos 1515 3.6 04:24:19 10° SSW 04:28:00 60° WNW 04:31:43 10° N
Envisat 3.0 04:22:53 10° NNE 04:28:00 87° ESE 04:33:05 10° SSW
ERBS 1.8 04:28:10 28° WSW 04:29:33 79° NNW 04:32:27 10° NE
Cosmos 1371 Rocket 4.0 04:24:47 10° SSW 04:30:05 80° WNW 04:35:23 10° NNE
Aureole 3 4.0 04:28:39 19° SW 04:30:47 30° WNW 04:33:56 10° NNW
IRS-1C 4.4 04:25:43 10° N 04:30:52 50° WNW 04:36:00 10° SW
Cosmos 1536 2.8 04:27:08 10° NNW 04:31:09 64° W 04:35:09 10° S
PSLV R/B 4.3 04:28:12 10° NNE 04:32:31 56° E 04:36:44 10° S
COSMOS 2406 3.6 04:28:53 10° SSW 04:34:30 68° ESE 04:40:09 10° NNE
Cosmos 2082 Rocket 3.0 04:30:20 10° S 04:35:47 54° ESE 04:41:15 10° NE
YAOGAN 6 2.7 04:35:03 10° N 04:38:38 56° WNW 04:42:11 10° SSW
Sich 1 4.5 04:37:03 10° NW 04:39:52 17° W 04:40:54 16° WSW
Cosmos 1515 Rocket 3.7 04:35:29 10° S 04:39:53 79° E 04:44:22 10° NNE
Cosmos 1151 Rocket 3.7 04:36:49 12° SW 04:40:24 34° WNW 04:44:19 10° N
BREEZE M DEB (TANK) 4.5 04:22:03 15° W 04:41:00 85° N 04:46:02 10° E
Cosmos 1140 Rocket 4.5 04:38:28 10° NW 04:42:32 24° W 04:46:36 10° SSW
Cosmos 1470 Rocket 3.5 04:40:12 10° NNW 04:44:28 59° W 04:48:43 10° S
Cosmos 1697 Rocket 3.0 04:41:35 10° NW 04:46:54 42° WSW 04:52:10 10° S
Cosmos 1356 4.4 04:49:23 12° SW 04:51:52 25° WNW 04:54:39 10° NNW
Cosmos 1346 Rocket 3.3 04:48:35 10° SW 04:52:19 39° WNW 04:56:05 10° N
BREEZE M DEB (TANK) 4.0 04:40:57 10° SW 04:54:03 60° SSE 04:57:50 10° E
ATLAS CENTAUR R/B 2.0 04:49:30 10° SSW 04:54:20 75° SE 04:59:13 10° NE
Cosmos 1850 Rocket 4.4 04:49:14 10° NNW 04:54:34 71° ENE 04:59:54 10° SSE
Cosmos 1743 3.4 04:52:55 10° NNW 04:56:17 31° W 04:59:38 10° SSW
USA 305 2.8 04:53:50 10° WSW 04:57:56 90° S 05:02:05 10° ENE
BREEZE-M DEB (TANK) 1.6 04:56:15 11° WNW 04:59:03 79° SSW 05:01:25 10° ESE
CZ-2C R/B 2.6 04:55:21 10° N 04:59:05 79° WNW 05:02:52 10° SSW
Tsikada Rocket 4.4 04:53:08 10° N 04:59:30 72° E 05:05:44 10° SSE
Cosmos 2056 Rocket 3.7 04:55:44 10° SW 05:00:42 49° WNW 05:05:42 10° NNE
Cosmos 1441 Rocket 3.6 04:59:56 10° SW 05:03:24 38° WNW 05:06:54 10° N
Meteor 1-27 Rocket 3.9 04:58:04 10° SSW 05:03:41 55° WNW 05:09:28 10° N
Cosmos 1954 Rocket 4.5 04:59:14 10° NW 05:04:02 38° WSW 05:08:51 10° S
CZ-2C R/B 3.6 05:00:08 10° SW 05:04:20 25° W 05:08:38 10° NW
Cosmos 1802 Rocket 4.0 04:59:52 10° SSW 05:06:16 76° W 05:12:38 10° N
Cosmos 1939 Rocket 4.3 05:05:29 10° NNE 05:09:24 43° E 05:13:15 10° S
Cosmos 1459 Rocket 4.2 05:04:53 10° SSW 05:11:07 58° WNW 05:17:25 10° N
Spot 4 Rocket 4.3 05:06:39 10° N 05:11:36 49° WNW 05:16:31 10° SW
COSMO-SKYMED 1 2.5 05:07:59 10° S 05:12:18 69° WSW 05:16:39 10° NNW
Cosmos 1420 Rocket 4.3 05:07:56 10° SW 05:12:58 46° WNW 05:18:01 10° NNE
CENTAUR R/B 3.3 05:07:44 10° SSW 05:13:22 55° ESE 05:20:09 10° NE
Meteor 1-29 3.9 05:10:52 10° N 05:13:40 26° WNW 05:16:27 10° SW
Cosmos 2322 Rocket 3.7 05:08:42 10° NNW 05:14:03 40° NE 05:19:22 10° ESE
CZ-4C R/B 4.2 05:12:15 10° SSW 05:15:55 31° W 05:19:44 10° NNW
